This is the latest recevied weather packets stored in our database for station/object KD2SIG. If no packets are shown the sender has not sent any weather packets the latest 10 day(s).
| Time | Temp. | Humidity | Pressure | Rain* | Wind** | Luminosity | Snow |
|---|---|---|---|---|---|---|---|
| 1778112727 | 7.22° C | 89% | 1010.8 hPa | 0 mm | - | 1 W/m² | - |
| 1778112423 | 7.22° C | 88% | 1010.8 hPa | 0 mm | - | 3 W/m² | - |
| 1778112119 | 7.78° C | 88% | 1011.1 hPa | 0 mm | - | 4 W/m² | - |
| 1778111816 | 7.78° C | 88% | 1010.8 hPa | 0 mm | - | 8 W/m² | - |
| 1778111511 | 7.78° C | 87% | 1010.6 hPa | 0 mm | - | 11 W/m² | - |
| 1778111209 | 7.78° C | 87% | 1010.6 hPa | 0 mm | - | 12 W/m² | - |
| 1778110906 | 8.33° C | 86% | 1010.3 hPa | 0 mm | - | 10 W/m² | - |
| 1778110603 | 8.33° C | 86% | 1010.1 hPa | 0 mm | - | 10 W/m² | - |
| 1778110300 | 8.33° C | 85% | 1010.4 hPa | 0 mm | - | 10 W/m² | - |
| 1778109996 | 8.33° C | 85% | 1010.5 hPa | 0 mm | - | 12 W/m² | - |
| 1778109691 | 8.33° C | 85% | 1010.5 hPa | 0 mm | - | 12 W/m² | - |
| 1778109389 | 8.33° C | 85% | 1010.6 hPa | 0 mm | - | 12 W/m² | - |
| 1778109087 | 8.33° C | 85% | 1010.5 hPa | 0 mm | - | 14 W/m² | - |
| 1778108784 | 8.33° C | 85% | 1010.4 hPa | 0 mm | - | 17 W/m² | - |
| 1778108481 | 8.33° C | 85% | 1010.6 hPa | 0 mm | - | 19 W/m² | - |
| 1778108177 | 8.33° C | 85% | 1010.8 hPa | 0 mm | - | 24 W/m² | - |
| 1778107874 | 8.33° C | 85% | 1010.7 hPa | 0 mm | - | 32 W/m² | - |
| 1778107570 | 8.33° C | 85% | 1011 hPa | 0 mm | - | 26 W/m² | - |
| 1778107267 | 8.89° C | 85% | 1010.3 hPa | 0 mm | - | 30 W/m² | - |
| 1778106963 | 8.89° C | 85% | 1010.5 hPa | 0 mm | - | 29 W/m² | - |
| 1778106659 | 8.89° C | 84% | 1010.6 hPa | 0 mm | - | 32 W/m² | - |
| 1778106356 | 8.89° C | 84% | 1010.5 hPa | 0 mm | - | 41 W/m² | - |
| 1778106053 | 8.89° C | 84% | 1010.5 hPa | 0 mm | - | 66 W/m² | - |
| 1778105750 | 8.89° C | 84% | 1010.6 hPa | 0 mm | - | 89 W/m² | - |
| 1778105448 | 8.89° C | 84% | 1010.3 hPa | 0 mm | - | 86 W/m² | - |
* Rain latest hour (hover to see other rain measurements)
** Current wind speed in m/s (hover to see current wind gust speed)